When you browse on this site, cookies collect data to enhance your experience and personalize the content and advertising you see.
Visit our Privacy Policy to learn more. By continuing to use the site, you agree to this use of cookies and data.
  • în România
  • Lista ţărilor
  • Pe 7 zile
  • Temperatura apei
  • Meteo pe hartă
  • Widget-uri
  • user-avatar
    Intrare

    Meteo pe oră la Szombathely

    Astăzi, 30 Mai, Sâmbătă

    Timp Temperatura Precipitaţii Vânt Presiune Umiditate
    00:00 +10°C° 0 mm 4 m/s 746 mmHg 77%
    01:00 +8°C° 0 mm 4 m/s 746 mmHg 78%
    02:00 +8°C° 0 mm 4 m/s 746 mmHg 78%
    03:00 +8°C° 0 mm 4 m/s 746 mmHg 78%
    04:00 +7°C° 0 mm 4 m/s 745 mmHg 78%
    05:00 +10°C° 0 mm 4 m/s 745 mmHg 73%
    06:00 +10°C° 0 mm 5 m/s 745 mmHg 68%
    07:00 +11°C° 0 mm 6 m/s 745 mmHg 63%
    08:00 +13°C° 0 mm 6 m/s 745 mmHg 59%
    09:00 +14°C° 0 mm 6 m/s 745 mmHg 55%
    10:00 +15°C° 0 mm 6 m/s 744 mmHg 52%
    11:00 +16°C° 0 mm 6 m/s 744 mmHg 50%
    12:00 +16°C° 0 mm 6 m/s 744 mmHg 48%
    13:00 +17°C° 0 mm 6 m/s 744 mmHg 46%
    14:00 +17°C° 0 mm 6 m/s 743 mmHg 47%
    15:00 +17°C° 0 mm 6 m/s 743 mmHg 47%
    16:00 +17°C° 0 mm 6 m/s 743 mmHg 47%
    17:00 +15°C° 0 mm 5 m/s 743 mmHg 54%
    18:00 +14°C° 0 mm 4 m/s 743 mmHg 61%
    19:00 +13°C° 0 mm 4 m/s 743 mmHg 68%
    20:00 +12°C° 0 mm 4 m/s 744 mmHg 71%
    21:00 +11°C° 0 mm 4 m/s 744 mmHg 73%
    22:00 +10°C° 0 mm 4 m/s 744 mmHg 76%
    23:00 +10°C° 0 mm 4 m/s 744 mmHg 77%

    Mâine, 31 Mai, Duminică

    Timp Temperatura Precipitaţii Vânt Presiune Umiditate
    00:00 +8°C° 0 mm 4 m/s 744 mmHg 78%
    01:00 +8°C° 0 mm 4 m/s 744 mmHg 80%
    02:00 +8°C° 0 mm 3 m/s 744 mmHg 81%
    03:00 +8°C° 0 mm 3 m/s 743 mmHg 81%
    04:00 +8°C° 0 mm 3 m/s 743 mmHg 82%
    05:00 +10°C° 0 mm 4 m/s 743 mmHg 75%
    06:00 +11°C° 0 mm 4 m/s 743 mmHg 69%
    07:00 +13°C° 0 mm 5 m/s 743 mmHg 62%
    08:00 +14°C° 0 mm 6 m/s 743 mmHg 58%
    09:00 +15°C° 0 mm 6 m/s 743 mmHg 55%
    10:00 +16°C° 0 mm 6 m/s 743 mmHg 52%
    11:00 +15°C° 0.1 mm 6 m/s 743 mmHg 59%
    12:00 +14°C° 0.1 mm 6 m/s 743 mmHg 66%
    13:00 +11°C° 0.1 mm 6 m/s 743 mmHg 73%
    14:00 +11°C° 0.2 mm 6 m/s 743 mmHg 75%
    15:00 +11°C° 0.2 mm 6 m/s 743 mmHg 77%
    16:00 +12°C° 0.2 mm 5 m/s 743 mmHg 80%
    17:00 +10°C° 0.1 mm 5 m/s 743 mmHg 81%
    18:00 +11°C° 0.1 mm 4 m/s 743 mmHg 82%
    19:00 +11°C° 0.1 mm 4 m/s 743 mmHg 83%
    20:00 +11°C° 0.1 mm 4 m/s 743 mmHg 85%
    21:00 +10°C° 0.1 mm 5 m/s 743 mmHg 86%
    22:00 +10°C° 0.1 mm 5 m/s 743 mmHg 87%
    23:00 +11°C° 0 mm 6 m/s 743 mmHg 86%

    Poimâine, 1 Iunie, Luni

    Timp Temperatura Precipitaţii Vânt Presiune Umiditate
    00:00 +11°C° 0 mm 6 m/s 743 mmHg 85%
    01:00 +11°C° 0 mm 7 m/s 743 mmHg 84%
    02:00 +11°C° 0 mm 7 m/s 743 mmHg 84%
    03:00 +11°C° 0 mm 7 m/s 743 mmHg 84%
    04:00 +11°C° 0 mm 7 m/s 743 mmHg 84%
    05:00 +12°C° 0 mm 7 m/s 743 mmHg 79%
    06:00 +13°C° 0 mm 8 m/s 744 mmHg 75%
    07:00 +15°C° 0 mm 8 m/s 744 mmHg 70%
    08:00 +16°C° 0 mm 8 m/s 744 mmHg 66%
    09:00 +17°C° 0 mm 7 m/s 744 mmHg 62%
    10:00 +18°C° 0 mm 7 m/s 744 mmHg 57%
    11:00 +18°C° 0.1 mm 7 m/s 744 mmHg 55%
    12:00 +20°C° 0.1 mm 7 m/s 744 mmHg 52%
    13:00 +21°C° 0.1 mm 7 m/s 744 mmHg 50%
    14:00 +20°C° 0 mm 8 m/s 744 mmHg 50%
    15:00 +20°C° 0 mm 8 m/s 744 mmHg 51%
    16:00 +20°C° 0 mm 8 m/s 744 mmHg 51%
    17:00 +18°C° 0 mm 7 m/s 744 mmHg 56%
    18:00 +16°C° 0 mm 6 m/s 744 mmHg 61%
    19:00 +15°C° 0 mm 5 m/s 744 mmHg 67%
    20:00 +14°C° 0 mm 5 m/s 744 mmHg 66%
    21:00 +13°C° 0 mm 5 m/s 744 mmHg 66%
    22:00 +12°C° 0 mm 5 m/s 745 mmHg 65%
    23:00 +10°C° 0 mm 5 m/s 745 mmHg 68%

    2 Iunie, Marţi

    Timp Temperatura Precipitaţii Vânt Presiune Umiditate
    00:00 +11°C° 0 mm 4 m/s 744 mmHg 70%
    01:00 +10°C° 0 mm 4 m/s 744 mmHg 73%
    02:00 +10°C° 0 mm 4 m/s 744 mmHg 74%
    03:00 +9°C° 0 mm 3 m/s 744 mmHg 76%
    04:00 +9°C° 0 mm 3 m/s 744 mmHg 77%
    05:00 +10°C° 0 mm 4 m/s 744 mmHg 71%
    06:00 +12°C° 0 mm 5 m/s 744 mmHg 65%
    07:00 +13°C° 0 mm 6 m/s 744 mmHg 59%
    08:00 +15°C° 0 mm 7 m/s 744 mmHg 56%
    09:00 +16°C° 0 mm 7 m/s 744 mmHg 53%
    10:00 +17°C° 0 mm 7 m/s 743 mmHg 49%
    11:00 +16°C° 0.1 mm 7 m/s 743 mmHg 56%
    12:00 +15°C° 0.1 mm 7 m/s 742 mmHg 63%
    13:00 +14°C° 0.1 mm 6 m/s 742 mmHg 69%
    14:00 +15°C° 0.1 mm 6 m/s 742 mmHg 65%
    15:00 +16°C° 0.1 mm 7 m/s 741 mmHg 61%
    16:00 +17°C° 0.1 mm 7 m/s 741 mmHg 57%
    17:00 +16°C° 0.1 mm 5 m/s 741 mmHg 63%
    18:00 +15°C° 0.1 mm 4 m/s 741 mmHg 68%
    19:00 +14°C° 0.1 mm 3 m/s 741 mmHg 74%
    20:00 +13°C° 0 mm 3 m/s 741 mmHg 78%
    21:00 +12°C° 0 mm 3 m/s 741 mmHg 82%
    22:00 +10°C° 0 mm 2 m/s 741 mmHg 86%
    23:00 +10°C° 0 mm 2 m/s 741 mmHg 86%

    3 Iunie, Miercuri

    Timp Temperatura Precipitaţii Vânt Presiune Umiditate
    00:00 +10°C° 0 mm 2 m/s 740 mmHg 86%
    01:00 +10°C° 0 mm 2 m/s 740 mmHg 87%
    02:00 +10°C° 0 mm 2 m/s 739 mmHg 88%
    03:00 +10°C° 0 mm 2 m/s 739 mmHg 90%
    04:00 +10°C° 0 mm 2 m/s 739 mmHg 91%
    05:00 +11°C° 0 mm 3 m/s 739 mmHg 83%
    06:00 +12°C° 0 mm 4 m/s 739 mmHg 75%
    07:00 +14°C° 0 mm 5 m/s 739 mmHg 67%
    08:00 +15°C° 0 mm 5 m/s 739 mmHg 61%
    09:00 +16°C° 0 mm 5 m/s 739 mmHg 55%
    10:00 +17°C° 0 mm 5 m/s 739 mmHg 48%
    11:00 +19°C° 0 mm 5 m/s 738 mmHg 46%
    12:00 +20°C° 0 mm 4 m/s 738 mmHg 45%
    13:00 +20°C° 0 mm 4 m/s 738 mmHg 43%
    14:00 +20°C° 0 mm 4 m/s 737 mmHg 43%
    15:00 +20°C° 0 mm 4 m/s 737 mmHg 43%
    16:00 +21°C° 0 mm 3 m/s 737 mmHg 43%
    17:00 +19°C° 0 mm 3 m/s 737 mmHg 51%
    18:00 +18°C° 0 mm 2 m/s 737 mmHg 59%
    19:00 +16°C° 0 mm 1 m/s 737 mmHg 67%
    20:00 +15°C° 0 mm 1 m/s 737 mmHg 71%
    21:00 +13°C° 0 mm 1 m/s 737 mmHg 74%
    22:00 +12°C° 0 mm 1 m/s 738 mmHg 78%
    23:00 +12°C° 0 mm 1 m/s 738 mmHg 79%

    4 Iunie, Joi

    Timp Temperatura Precipitaţii Vânt Presiune Umiditate
    00:00 +11°C° 0 mm 1 m/s 737 mmHg 81%
    01:00 +10°C° 0 mm 0 m/s 737 mmHg 83%
    02:00 +10°C° 0 mm 0 m/s 737 mmHg 84%
    03:00 +9°C° 0 mm 0 m/s 737 mmHg 84%
    04:00 +9°C° 0 mm 0 m/s 736 mmHg 85%
    05:00 +10°C° 0 mm 0 m/s 736 mmHg 80%
    06:00 +13°C° 0 mm 1 m/s 737 mmHg 75%
    07:00 +15°C° 0 mm 1 m/s 737 mmHg 70%
    08:00 +16°C° 0 mm 2 m/s 736 mmHg 66%
    09:00 +18°C° 0 mm 2 m/s 736 mmHg 61%
    10:00 +19°C° 0 mm 3 m/s 736 mmHg 57%
    11:00 +20°C° 0 mm 3 m/s 736 mmHg 57%
    12:00 +21°C° 0 mm 4 m/s 736 mmHg 57%
    13:00 +22°C° 0 mm 4 m/s 736 mmHg 57%
    14:00 +22°C° 0 mm 4 m/s 735 mmHg 56%
    15:00 +23°C° 0 mm 4 m/s 735 mmHg 56%
    16:00 +23°C° 0 mm 4 m/s 735 mmHg 55%
    17:00 +22°C° 0 mm 4 m/s 734 mmHg 62%
    18:00 +21°C° 0 mm 4 m/s 734 mmHg 69%
    19:00 +20°C° 0 mm 4 m/s 734 mmHg 76%
    20:00 +19°C° 0 mm 3 m/s 734 mmHg 78%
    21:00 +17°C° 0 mm 3 m/s 734 mmHg 80%
    22:00 +16°C° 0 mm 3 m/s 734 mmHg 83%
    23:00 +16°C° 0 mm 3 m/s 734 mmHg 85%
    Arată mai mult